OK1CMJ-5 Weather Reports


time (UTC)temp
F
wind
direction
speed
knots
gust
knots
rain 1hr
in
rain 24hr
in
rain mn
in
humidity
%
barometer
mb
20260503053732 65 181 0.9 1.7 0.00 0.00 0.00 13 1019.2
20260503052832 65 0 0.0 0.0 0.00 0.00 0.00 17 1019.2
20260503051932 63 0 0.0 0.0 0.00 0.00 0.00 24 1019.2
20260503051032 61 0 0.0 0.0 0.00 0.00 0.00 28 1019.2
20260503050132 58 0 0.0 0.0 0.00 0.00 0.00 32 1019.1
20260503045232 55 181 0.0 0.9 0.00 0.00 0.00 33 1019.0
20260503044332 53 181 0.0 0.9 0.00 0.00 0.00 37 1019.1
20260503043432 51 0 0.0 0.0 0.00 0.00 0.00 45 1019.2
20260503042532 49 181 0.0 0.9 0.00 0.00 0.00 48 1019.2
20260503041632 45 0 0.0 0.0 0.00 0.00 0.00 50 1019.1
20260503040732 42 0 0.0 0.0 0.00 0.00 0.00 53 1019.1
20260503034932 40 181 0.0 0.9 0.00 0.00 0.00 51 1019.1
20260503034032 39 286 0.0 1.7 0.00 0.00 0.00 51 1019.1
20260503033132 39 281 0.0 1.7 0.00 0.00 0.00 50 1019.1
20260503032232 39 181 0.0 0.9 0.00 0.00 0.00 48 1019.2
20260503031332 39 181 0.0 1.7 0.00 0.00 0.00 48 1019.1
20260503030432 40 0 0.0 0.0 0.00 0.00 0.00 47 1019.2
20260503025532 40 181 0.0 1.7 0.00 0.00 0.00 47 1019.1
20260503024632 40 202 0.0 1.7 0.00 0.00 0.00 47 1019.2
20260503023732 41 1 0.0 1.7 0.00 0.00 0.00 47 1019.1
20260503021932 41 181 0.0 1.7 0.00 0.00 0.00 46 1019.3
20260503020132 41 358 0.0 1.7 0.00 0.00 0.00 45 1019.1
20260503015232 42 268 0.0 1.7 0.00 0.00 0.00 45 1019.2
20260503014333 41 181 0.0 1.7 0.00 0.00 0.00 45 1019.3
20260503013432 41 181 0.0 1.7 0.00 0.00 0.00 45 1019.2
20260503010732 42 1 0.0 0.9 0.00 0.00 0.00 42 1019.4
20260503005832 42 1 0.0 1.7 0.00 0.00 0.00 42 1019.5
20260503004932 42 181 0.0 1.7 0.00 0.00 0.00 41 1019.5
20260503004032 42 1 0.0 1.7 0.00 0.00 0.00 41 1019.6
20260503002232 42 203 0.0 1.7 0.00 0.00 0.00 40 1019.7
20260503001332 42 202 0.0 0.9 0.00 0.00 0.00 39 1019.8
20260503000432 42 202 0.0 1.7 0.00 0.00 0.00 38 1020.1
20260502235532 42 202 0.0 1.7 0.00 0.00 0.00 38 1020.2
20260502234632 42 202 0.0 1.7 0.00 0.00 0.00 38 1020.1
20260502232832 42 202 0.0 0.9 0.00 0.00 0.00 36 1020.2
20260502231932 43 203 0.0 0.9 0.00 0.00 0.00 35 1020.2
20260502231032 43 203 0.0 1.7 0.00 0.00 0.00 35 1020.2
20260502230132 43 225 0.0 1.7 0.00 0.00 0.00 33 1020.2
20260502225232 43 225 0.0 1.7 0.00 0.00 0.00 33 1020.2
20260502224332 44 293 0.0 0.9 0.00 0.00 0.00 32 1020.2
20260502223432 44 318 0.0 0.9 0.00 0.00 0.00 32 1020.2
20260502222532 44 226 0.0 1.7 0.00 0.00 0.00 32 1020.3
20260502221632 44 187 0.0 1.7 0.00 0.00 0.00 33 1020.4
20260502220732 44 181 0.0 0.9 0.00 0.00 0.00 28 1020.4
20260502215832 45 181 0.0 1.7 0.00 0.00 0.00 27 1020.4
20260502214932 45 181 0.0 1.7 0.00 0.00 0.00 28 1020.5
20260502213132 46 191 0.0 1.7 0.00 0.00 0.00 24 1020.5
20260502212232 47 225 0.9 1.7 0.00 0.00 0.00 22 1020.3
20260502211332 47 225 0.0 1.7 0.00 0.00 0.00 20 1020.4
20260502205532 47 225 0.0 0.9 0.00 0.00 0.00 19 1020.5
20260502204632 47 274 0.0 1.7 0.00 0.00 0.00 18 1020.5
20260502203732 48 212 0.0 1.7 0.00 0.00 0.00 18 1020.5
20260502202832 47 216 0.0 1.7 0.00 0.00 0.00 18 1020.5
20260502201932 47 324 0.0 1.7 0.00 0.00 0.00 17 1020.3
20260502201032 48 1 0.0 0.9 0.00 0.00 0.00 18 1020.5
20260502200131 48 308 0.0 0.9 0.00 0.00 0.00 16 1020.4
20260502195232 49 225 0.0 0.9 0.00 0.00 0.00 16 1020.5
20260502194332 49 208 0.0 0.9 0.00 0.00 0.00 16 1020.7
20260502193432 50 226 0.0 1.7 0.00 0.00 0.00 16 1020.7
20260502192532 50 219 0.0 0.9 0.00 0.00 0.00 15 1020.6
20260502191631 50 0 0.0 0.0 0.00 0.00 0.00 13 1020.5
20260502190732 51 0 0.0 0.0 0.00 0.00 0.00 12 1020.4
20260502185831 51 0 0.0 0.0 0.00 0.00 0.00 11 1020.4
20260502184932 52 225 0.0 0.9 0.00 0.00 0.00 11 1020.5
20260502184032 53 0 0.0 0.0 0.00 0.00 0.00 10 1020.4
20260502183132 54 1 0.0 0.9 0.00 0.00 0.00 10 1020.5
20260502182231 56 234 0.0 0.9 0.00 0.00 0.00 10 1020.5
20260502181332 57 225 0.0 0.9 0.00 0.00 0.00 10 1020.4
20260502180431 60 254 0.0 0.9 0.00 0.00 0.00 10 1020.3
20260502170132 74 314 0.0 1.7 0.00 0.00 0.00 10 1020.7
20260502163431 80 302 0.0 1.7 0.00 0.00 0.00 10 1020.7
20260502162531 81 157 0.0 2.6 0.00 0.00 0.00 10 1020.8
20260502161631 82 123 0.0 3.5 0.00 0.00 0.00 10 1020.9
20260502160732 82 96 0.9 1.7 0.00 0.00 0.00 10 1021.0
20260502151332 81 49 1.7 3.5 0.00 0.00 0.00 10 1021.6
20260502150432 80 41 0.9 4.3 0.00 0.00 0.00 10 1021.7
20260502130731 78 309 0.0 2.6 0.00 0.00 0.00 10 1023.2
20260502123131 77 145 0.9 3.5 0.00 0.00 0.00 10 1023.7
20260502120432 76 89 1.7 5.2 0.00 0.00 0.00 10 1023.9
20260502115531 76 12 1.7 7.0 0.00 0.00 0.00 10 1023.9
20260502114631 75 115 1.7 7.0 0.00 0.00 0.00 10 1024.1
20260502112831 75 133 0.9 5.2 0.00 0.00 0.00 10 1024.3
20260502111931 76 151 0.9 4.3 0.00 0.00 0.00 10 1024.4
20260502111031 75 87 0.0 3.5 0.00 0.00 0.00 10 1024.5
20260502110131 75 96 0.9 4.3 0.00 0.00 0.00 10 1024.7
20260502105231 76 154 1.7 3.5 0.00 0.00 0.00 10 1024.8
20260502104331 74 126 0.9 5.2 0.00 0.00 0.00 10 1024.8
20260502103431 74 109 1.7 6.1 0.00 0.00 0.00 10 1025.0
20260502102531 75 170 0.0 4.3 0.00 0.00 0.00 10 1025.1
20260502101631 74 131 1.7 3.5 0.00 0.00 0.00 10 1025.1
20260502100731 74 1 0.9 5.2 0.00 0.00 0.00 10 1025.5
20260502091331 75 183 0.0 4.3 0.00 0.00 0.00 10 1025.7
20260502090431 75 216 1.7 5.2 0.00 0.00 0.00 10 1025.8
20260502065831 68 166 0.9 3.5 0.00 0.00 0.00 10 1026.4
20260502064931 67 264 0.9 3.5 0.00 0.00 0.00 11 1026.5
20260502064031 66 128 0.0 2.6 0.00 0.00 0.00 14 1026.2
20260502063131 66 103 0.9 2.6 0.00 0.00 0.00 11 1026.3
20260502062231 67 90 0.9 2.6 0.00 0.00 0.00 10 1026.3
20260502060431 68 51 0.9 1.7 0.00 0.00 0.00 14 1026.4